Погода в Кукуевке

Россия / Орловская область     53°06′22″N   35°22′10″E
темп.,
°C
ветер,
м/с
пор.,
м/с
влажн.,
%
обл.,
%
осадки,
мм/ч
давл.,
гПа
погр.,
м
27 октября, ср
ср2700:00+3юз61566100 0.0 1025374
03:00+2юз61472100 0.0 1023339
06:00+1ююз61481100 0.0 1022328
09:00+3юз6158023 0.0 1021467
12:00+7зюз8126499 0.0 1020657
15:00+7зюз61165100 0.0 1019698
18:00+6зюз5107374 0.0 1021430
21:00+4зюз49896 0.0 1021255
28 октября, чт
чт2800:00+3зюз499421 0.0 1021175
03:00+4юз51292100 0.0 1019284
06:00+5юз71590100 0.1 1016455
09:00+6зюз61394100 1.1 1016529
12:00+7зюз61296100 0.7 1016508
15:00+9з61192100 0.7 1017714
18:00+9зсз4990100 0.1 1018316
21:00+6ссз4118988 0.2 1021285
29 октября, пт
пт2900:00+7ссз487471 0.0 1023217
03:00+4с37945 0.0 1026129
06:00+3св339418 0.0 102745
09:00+5всв12855 0.0 102948
12:00+8ююв11675 0.0 1029578
15:00+9юз22645 0.0 1029616
18:00+6ююз22800 0.0 103010
21:00+5ююз22865 0.0 103115
30 октября, сб
сб3000:00+4ююз34895 0.0 103143
03:00+3ююз34915 0.0 103259
06:00+3юз34935 0.0 103260
09:00+4ююз36905 0.0 1033148
12:00+9ююз466817 0.0 1032413
15:00+10ююз46625 0.0 1031542
18:00+6ююз35845 0.0 103169
21:00+5ююз38905 0.0 1032131
31 октября, вс
вс3100:00+4ююз37915 0.0 1032116
03:00+4ююз36915 0.0 1032104
06:00+3ююз35905 0.0 103288
09:00+4ю36855 0.0 1032144
12:00+9ююз46610 0.0 1030392
15:00+10ю46570 0.0 1029550
18:00+6ю34770 0.0 102857
21:00+5ююв37820 0.0 1028104